This demonstration page uses our WeatherBlox Daily Observations layout. Learn more.

38.88101, -77.10428

Hourly Observations for September 22, 2018

Temp ( °F °C ) Dew Point ( °F °C ) Humidity (%) Winds ( mph kmh ) Pressure ( in mb ) Visibility ( mi km ) Precip ( " mm )
12:52 am 00:52 Mostly Cloudy 75 23.9 69 20.6 82 82 SSW 14 22 30.04 1017 10 16.0934 0 0
1:52 am 01:52 Mostly Cloudy 74 23.3 69 20.6 85 85 SSW 8 13 30.03 1017 10 16.0934 0 0
2:52 am 02:52 Mostly Clear 73 22.8 69 20.6 87 87 S 9 15 30.01 1016 10 16.0934 0 0
3:52 am 03:52 Clear 73 22.8 69 20.6 87 87 S 9 15 30 1016 10 16.0934 0 0
4:52 am 04:52 Mostly Cloudy 74 23.3 70 21.1 88 88 SW 6 9 30.02 1017 10 16.0934 0 0
5:06 am 05:06 Cloudy 74 23.3 70 21.1 88 88 NNW 9 15 30.03 1017 10 16.0934 0 0
5:10 am 05:10 Cloudy 74 23.3 70 21.1 88 88 NNW 8 13 30.06 1018 10 16.0934 0 0
5:52 am 05:52 Cloudy with Light Rain 74 23.3 70 21.1 88 88 Calm 30.06 1018 10 16.0934 0 0.0254
6:11 am 06:11 Cloudy 75 23.9 70 21.1 84 84 W 5 7 30.06 1018 10 16.0934 0 0.0254
6:52 am 06:52 Mostly Cloudy with Light Rain 74 23.3 70 21.1 88 88 N 6 9 30.07 1018 10 16.0934 0 0.0254
7:52 am 07:52 Mostly Cloudy 75 23.9 71 21.7 88 88 NNW 7 11 30.09 1019 10 16.0934 0.01 0.254
8:52 am 08:52 Mostly Cloudy 77 25 71 21.7 82 82 NNW 8 13 30.1 1019 10 16.0934 0 0
9:52 am 09:52 Mostly Cloudy 77 25 68 20 74 74 NNW 12 19 30.11 1020 10 16.0934 0 0
10:52 am 10:52 Mostly Cloudy 77 25 65 18.3 66 66 NW 13 20 30.13 1020 10 16.0934 0 0
11:52 am 11:52 Mostly Cloudy 77 25 63 17.2 62 62 NW 15 24 30.13 1020 10 16.0934 0 0
12:52 pm 12:52 Mostly Cloudy 76 24.4 60 15.6 58 58 N 13 20 30.14 1021 10 16.0934 0 0
1:52 pm 13:52 Mostly Cloudy 80 26.7 62 16.7 54 54 NNE 9 15 30.14 1021 10 16.0934 0 0
2:52 pm 14:52 Mostly Cloudy 79 26.1 59 15 50 50 NNW 13 20 30.14 1021 10 16.0934 0 0
3:52 pm 15:52 Mostly Cloudy 76 24.4 58 14.4 54 54 NNE 12 19 30.14 1021 10 16.0934 0 0
4:52 pm 16:52 Mostly Cloudy 75 23.9 60 15.6 60 60 N 12 19 30.13 1020 10 16.0934 0 0
5:52 pm 17:52 Cloudy 73 22.8 59 15 62 62 N 14 22 30.15 1021 10 16.0934 0 0
6:52 pm 18:52 Cloudy 70 21.1 54 12.2 57 57 NNE 16 26 30.17 1022 10 16.0934 0 0
7:52 pm 19:52 Mostly Cloudy 68 20 53 11.7 59 59 N 13 20 30.18 1022 10 16.0934 0 0
8:52 pm 20:52 Mostly Cloudy 67 19.4 55 12.8 66 66 NNE 10 17 30.2 1023 10 16.0934 0 0
9:52 pm 21:52 Mostly Cloudy 66 18.9 56 13.3 70 70 NNE 8 13 30.2 1023 10 16.0934 0 0
10:52 pm 22:52 Mostly Cloudy 66 18.9 53 11.7 63 63 NE 10 17 30.2 1023 10 16.0934 0 0
11:52 pm 23:52 Cloudy 65 18.3 53 11.7 66 66 NNE 7 11 30.21 1023 10 16.0934 0 0

Powered by AerisWeather